This is the latest recevied weather packets stored in our database for station/object SP1BMW-13. If no packets are shown the sender has not sent any weather packets the latest 10 day(s).
| Time | Temp. | Humidity | Pressure | Rain* | Wind** | Luminosity | Snow |
|---|---|---|---|---|---|---|---|
| 1787649997 | 21.67° C | 60% | 1019.1 hPa | 0 mm | 0.89 m/s, 32° | 551 W/m² | - |
| 1787649937 | 21.67° C | 61% | 1019.4 hPa | 0 mm | 1.34 m/s, 20° | 548 W/m² | - |
| 1787649878 | 21.67° C | 61% | 1019.1 hPa | 0 mm | 1.79 m/s, 68° | 546 W/m² | - |
| 1787649817 | 21.67° C | 60% | 1019.2 hPa | 0 mm | 1.34 m/s, 45° | 544 W/m² | - |
| 1787649756 | 21.67° C | 60% | 1019.3 hPa | 0 mm | 0.89 m/s, 30° | 542 W/m² | - |
| 1787649697 | 21.67° C | 62% | 1019.4 hPa | 0 mm | 0 m/s | 539 W/m² | - |
| 1787649639 | 21.67° C | 60% | 1019.4 hPa | 0 mm | 0.89 m/s, 68° | 538 W/m² | - |
| 1787649576 | 21.67° C | 62% | 1019.4 hPa | 0 mm | 0.45 m/s, 107° | 536 W/m² | - |
| 1787649517 | 21.67° C | 63% | 1019.5 hPa | 0 mm | 0.89 m/s, 83° | 535 W/m² | - |
| 1787649457 | 21.11° C | 63% | 1019.5 hPa | 0 mm | 0.45 m/s, 64° | 534 W/m² | - |
| 1787649397 | 21.11° C | 61% | 1019.4 hPa | 0 mm | 0.89 m/s, 5° | 533 W/m² | - |
| 1787649336 | 21.11° C | 60% | 1019.3 hPa | 0 mm | 0.89 m/s, 193° | 530 W/m² | - |
| 1787649285 | 21.11° C | 62% | 1019.3 hPa | 0 mm | 0.89 m/s, 80° | 529 W/m² | - |
| 1787649216 | 21.11° C | 64% | 1019.5 hPa | 0 mm | 0.89 m/s, 18° | 527 W/m² | - |
| 1787649156 | 21.11° C | 63% | 1019.3 hPa | 0 mm | 0.45 m/s, 53° | 525 W/m² | - |
| 1787649096 | 21.11° C | 63% | 1019.3 hPa | 0 mm | 1.34 m/s, 53° | 523 W/m² | - |
| 1787649038 | 21.11° C | 62% | 1019.5 hPa | 0 mm | 0.89 m/s, 56° | 522 W/m² | - |
| 1787648976 | 21.11° C | 64% | 1019.3 hPa | 0 mm | 0.45 m/s, 58° | 523 W/m² | - |
| 1787648917 | 21.11° C | 64% | 1019.4 hPa | 0 mm | 0.45 m/s, 37° | 522 W/m² | - |
| 1787648857 | 21.11° C | 62% | 1019.4 hPa | 0 mm | 0.45 m/s, 107° | 519 W/m² | - |
| 1787648798 | 21.11° C | 63% | 1019.4 hPa | 0 mm | 1.34 m/s, 35° | 519 W/m² | - |
| 1787648737 | 21.11° C | 63% | 1019.4 hPa | 0 mm | 1.34 m/s, 40° | 517 W/m² | - |
| 1787648677 | 21.11° C | 62% | 1019.4 hPa | 0 mm | 2.24 m/s, 29° | 514 W/m² | - |
| 1787648616 | 20.56° C | 64% | 1019.2 hPa | 0 mm | 0.89 m/s, 82° | 514 W/m² | - |
| 1787648556 | 20.56° C | 62% | 1019.2 hPa | 0 mm | 0.89 m/s, 141° | 512 W/m² | - |
* Rain latest hour (hover to see other rain measurements)
** Current wind speed in m/s (hover to see current wind gust speed)